Shumskiy

Russia / Irkutsk Oblast     54˚49′54″N   99˚07′55″E
temp.,
°C
wind,
m/s
gust,
m/s
humid.,
%
clouds,
%
prec.,
mm/h
press.,
hPa
HPBL,
m
28 november, sat
sat2823:00−14˚se12910 0.0 104434
02:00−14˚sse11890 0.0 104422
05:00−14˚se11880 0.0 104320
08:00−14˚sse01850 0.0 104420
11:00−12˚ssw00780 0.0 104337
14:00−9˚nne11680 0.0 1041213
17:00−12˚n11880 0.0 104121
20:00−13˚nw11920 0.0 104220
29 november, sun
sun2923:00−14˚nw00930 0.0 104320
02:00−14˚sw00930 0.0 104320
05:00−14˚sw00900 0.0 104320
08:00−14˚s01860 0.0 104320
11:00−12˚ssw017415 0.0 104334
14:00−9˚ene006544 0.0 1040153
17:00−11˚nnw007970 0.0 104121
20:00−11˚sw008085 0.0 104221
30 november, mon
mon3023:00−11˚wnw0081100 0.0 104221
02:00−11˚w1180100 0.0 104221
05:00−11˚w1179100 0.0 104222
08:00−11˚wsw1179100 0.0 104227
11:00−10˚wsw117597 0.0 104350
14:00−6˚wnw156267 0.0 1042415
17:00−9˚wsw127935 0.0 104222
20:00−9˚sw127467 0.0 104226
1 december, tue
tue123:00−9˚ssw1174100 0.0 104222
02:00−9˚sw1175100 0.0 104121
05:00−8˚nw1176100 0.0 104021
08:00−8˚w1180100 0.0 104022
11:00−8˚wnw1881100 0.1 1041772
14:00−7˚nw3966100 0.2 10401106
17:00−8˚nw2977100 0.0 1040921
20:00−9˚nw1880100 0.1 1041485
2 december, wed
wed223:00−9˚w1180100 0.0 104126
02:00−9˚sw1182100 0.1 104150
05:00−9˚w1482100 0.1 1041217
08:00−8˚wnw1980100 0.2 1042828
11:00−8˚wnw21073100 0.0 10421060
14:00−6˚nw3965100 0.0 10421007
17:00−8˚nw1178100 0.0 104221
20:00−8˚sw1183100 0.0 104222